Location: Newark
(25.0000°N, 73.5000°E)
Time: 07:14:23
(UTC+00:00)

Tiangong - Pass Details

Date: 30 June 2021
Orbit: 374 x 386 km, 41.5° (Epoch: 28 July)

Event Time Altitude Azimuth Distance (km) Brightness Sun altitude
Exits shadow 22:17:21 - 335° (NNW) 1,647 4.5 -23.8°
Reaches altitude 10° 22:18:16 10° 346° (NNW) 1,380 4.2 -23.7°
Maximum altitude 22:20:17 16° 26° (NNE) 1,089 4.2 -23.3°
Drops below altitude 10° 22:22:18 10° 67° (ENE) 1,384 4.8 -23.0°
Sets 22:24:56 0° 90° (E) 2,237 5.7 -22.6°
